COSMOS 2526

Last updated on Sat Apr 26 2025 00:02:43 GMT+0000 (Coordinated Universal Time)

1 43432U 18037A 25115.51572317 -.00000342 00000+0 00000+0 0 9998 2 43432 0.0249 128.5367 0000105 301.5868 97.3733 1.00273527 25783
UTC large
Height (km)
Speed (km/s)
/
Latitude / Longitude
Inclination (degrees)
Orbital Period (minutes)
Azimuth
Elevation
Range (km)
Doppler Factor

Next 0 passes for location: London (51.5072 / 0.1276)

Sorry there are no passes over London.